• Em Portugal
  • Lista de países
  • Para 7 dias
  • Temperatura da água
  • Mapas de satélite
  • Mapa do tempo
  • Widgets de tempo
  • user-avatar
    Iniciar Sessão

    Previsão horária em Quipungo

    Hoje, 21 Julho, Sábado

    Tempo Temperatura Precipitação Vento Pressão Humidade
    00:00 +14°C° 0 mm 1 m/s 654 mmHg 44%
    01:00 +13°C° 0 mm 1 m/s 654 mmHg 47%
    02:00 +13°C° 0 mm 1 m/s 654 mmHg 50%
    03:00 +12°C° 0 mm 1 m/s 653 mmHg 53%
    04:00 +12°C° 0 mm 1 m/s 653 mmHg 56%
    05:00 +11°C° 0 mm 1 m/s 653 mmHg 56%
    06:00 +11°C° 0 mm 1 m/s 653 mmHg 57%
    07:00 +11°C° 0 mm 1 m/s 654 mmHg 57%
    08:00 +15°C° 0 mm 2 m/s 655 mmHg 47%
    09:00 +19°C° 0 mm 2 m/s 656 mmHg 38%
    10:00 +24°C° 0 mm 3 m/s 657 mmHg 28%
    11:00 +26°C° 0 mm 3 m/s 657 mmHg 24%
    12:00 +28°C° 0 mm 2 m/s 657 mmHg 20%
    13:00 +30°C° 0 mm 2 m/s 657 mmHg 16%
    14:00 +30°C° 0 mm 2 m/s 656 mmHg 15%
    15:00 +30°C° 0 mm 1 m/s 656 mmHg 14%
    16:00 +30°C° 0 mm 1 m/s 655 mmHg 14%
    17:00 +27°C° 0 mm 1 m/s 655 mmHg 17%
    18:00 +24°C° 0 mm 1 m/s 654 mmHg 21%
    19:00 +21°C° 0 mm 1 m/s 654 mmHg 24%
    20:00 +20°C° 0 mm 1 m/s 654 mmHg 26%
    21:00 +20°C° 0 mm 1 m/s 655 mmHg 27%
    22:00 +19°C° 0 mm 1 m/s 655 mmHg 29%
    23:00 +18°C° 0 mm 1 m/s 655 mmHg 31%

    Amanhã, 22 Julho, Domingo

    Tempo Temperatura Precipitação Vento Pressão Humidade
    00:00 +16°C° 0 mm 1 m/s 655 mmHg 33%
    01:00 +15°C° 0 mm 1 m/s 654 mmHg 35%
    02:00 +14°C° 0 mm 1 m/s 654 mmHg 38%
    03:00 +14°C° 0 mm 1 m/s 654 mmHg 40%
    04:00 +12°C° 0 mm 0 m/s 653 mmHg 43%
    05:00 +13°C° 0 mm 1 m/s 654 mmHg 44%
    06:00 +13°C° 0 mm 1 m/s 654 mmHg 45%
    07:00 +13°C° 0 mm 1 m/s 654 mmHg 46%
    08:00 +17°C° 0 mm 2 m/s 655 mmHg 39%
    09:00 +20°C° 0 mm 2 m/s 656 mmHg 32%
    10:00 +25°C° 0 mm 3 m/s 657 mmHg 25%
    11:00 +27°C° 0 mm 3 m/s 657 mmHg 22%
    12:00 +29°C° 0 mm 3 m/s 657 mmHg 18%
    13:00 +31°C° 0 mm 2 m/s 657 mmHg 15%
    14:00 +32°C° 0 mm 2 m/s 656 mmHg 14%
    15:00 +32°C° 0 mm 2 m/s 656 mmHg 13%
    16:00 +32°C° 0 mm 1 m/s 655 mmHg 13%
    17:00 +29°C° 0 mm 1 m/s 655 mmHg 16%
    18:00 +25°C° 0 mm 1 m/s 655 mmHg 19%
    19:00 +22°C° 0 mm 1 m/s 655 mmHg 22%
    20:00 +22°C° 0 mm 1 m/s 655 mmHg 24%
    21:00 +21°C° 0 mm 1 m/s 656 mmHg 25%
    22:00 +20°C° 0 mm 1 m/s 656 mmHg 27%
    23:00 +19°C° 0 mm 1 m/s 656 mmHg 29%

    Depois de amanhã, 23 Julho, Segunda-feira

    Tempo Temperatura Precipitação Vento Pressão Humidade
    00:00 +18°C° 0 mm 1 m/s 656 mmHg 31%
    01:00 +16°C° 0 mm 1 m/s 655 mmHg 34%
    02:00 +15°C° 0 mm 1 m/s 655 mmHg 36%
    03:00 +15°C° 0 mm 1 m/s 655 mmHg 38%
    04:00 +14°C° 0 mm 1 m/s 654 mmHg 40%
    05:00 +14°C° 0 mm 1 m/s 655 mmHg 41%
    06:00 +14°C° 0 mm 1 m/s 655 mmHg 42%
    07:00 +14°C° 0 mm 1 m/s 655 mmHg 44%
    08:00 +17°C° 0 mm 2 m/s 656 mmHg 38%
    09:00 +21°C° 0 mm 3 m/s 657 mmHg 32%
    10:00 +25°C° 0 mm 4 m/s 658 mmHg 26%
    11:00 +27°C° 0 mm 4 m/s 658 mmHg 23%
    12:00 +29°C° 0 mm 3 m/s 657 mmHg 20%
    13:00 +31°C° 0 mm 3 m/s 657 mmHg 16%
    14:00 +31°C° 0 mm 3 m/s 657 mmHg 15%
    15:00 +31°C° 0 mm 2 m/s 656 mmHg 15%
    16:00 +31°C° 0 mm 2 m/s 656 mmHg 14%
    17:00 +29°C° 0 mm 2 m/s 655 mmHg 17%
    18:00 +26°C° 0 mm 2 m/s 655 mmHg 20%
    19:00 +23°C° 0 mm 1 m/s 655 mmHg 23%
    20:00 +22°C° 0 mm 1 m/s 655 mmHg 24%
    21:00 +20°C° 0 mm 2 m/s 656 mmHg 26%
    22:00 +18°C° 0 mm 2 m/s 656 mmHg 28%
    23:00 +18°C° 0 mm 2 m/s 656 mmHg 30%

    24 Julho, Terça-feira

    Tempo Temperatura Precipitação Vento Pressão Humidade
    00:00 +17°C° 0 mm 2 m/s 655 mmHg 32%
    01:00 +16°C° 0 mm 2 m/s 655 mmHg 34%
    02:00 +15°C° 0 mm 2 m/s 655 mmHg 37%
    03:00 +15°C° 0 mm 1 m/s 655 mmHg 39%
    04:00 +14°C° 0 mm 1 m/s 654 mmHg 41%
    05:00 +14°C° 0 mm 1 m/s 655 mmHg 42%
    06:00 +14°C° 0 mm 1 m/s 655 mmHg 43%
    07:00 +13°C° 0 mm 1 m/s 655 mmHg 44%
    08:00 +17°C° 0 mm 2 m/s 656 mmHg 37%
    09:00 +21°C° 0 mm 3 m/s 657 mmHg 30%
    10:00 +25°C° 0 mm 3 m/s 658 mmHg 22%
    11:00 +27°C° 0 mm 3 m/s 658 mmHg 19%
    12:00 +29°C° 0 mm 3 m/s 658 mmHg 16%
    13:00 +31°C° 0 mm 2 m/s 657 mmHg 13%
    14:00 +31°C° 0 mm 2 m/s 657 mmHg 12%
    15:00 +31°C° 0 mm 2 m/s 656 mmHg 11%
    16:00 +31°C° 0 mm 2 m/s 656 mmHg 11%
    17:00 +28°C° 0 mm 2 m/s 655 mmHg 14%
    18:00 +25°C° 0 mm 1 m/s 655 mmHg 16%
    19:00 +22°C° 0 mm 1 m/s 655 mmHg 19%
    20:00 +21°C° 0 mm 1 m/s 655 mmHg 21%
    21:00 +20°C° 0 mm 1 m/s 655 mmHg 23%
    22:00 +19°C° 0 mm 1 m/s 655 mmHg 25%
    23:00 +18°C° 0 mm 1 m/s 655 mmHg 28%

    25 Julho, Quarta-feira

    Tempo Temperatura Precipitação Vento Pressão Humidade
    00:00 +16°C° 0 mm 1 m/s 655 mmHg 32%
    01:00 +16°C° 0 mm 1 m/s 655 mmHg 35%
    02:00 +15°C° 0 mm 1 m/s 654 mmHg 38%
    03:00 +14°C° 0 mm 1 m/s 654 mmHg 41%
    04:00 +14°C° 0 mm 1 m/s 654 mmHg 45%
    05:00 +14°C° 0 mm 1 m/s 654 mmHg 45%
    06:00 +13°C° 0 mm 1 m/s 654 mmHg 46%
    07:00 +13°C° 0 mm 1 m/s 655 mmHg 47%
    08:00 +17°C° 0 mm 2 m/s 656 mmHg 39%
    09:00 +21°C° 0 mm 3 m/s 657 mmHg 31%
    10:00 +26°C° 0 mm 4 m/s 657 mmHg 23%
    11:00 +28°C° 0 mm 3 m/s 657 mmHg 20%
    12:00 +30°C° 0 mm 3 m/s 657 mmHg 17%
    13:00 +32°C° 0 mm 2 m/s 656 mmHg 14%
    14:00 +32°C° 0 mm 2 m/s 656 mmHg 13%
    15:00 +32°C° 0 mm 1 m/s 656 mmHg 13%
    16:00 +32°C° 0 mm 1 m/s 655 mmHg 12%
    17:00 +29°C° 0 mm 1 m/s 655 mmHg 15%
    18:00 +26°C° 0 mm 1 m/s 655 mmHg 17%
    19:00 +23°C° 0 mm 1 m/s 654 mmHg 20%
    20:00 +22°C° 0 mm 1 m/s 654 mmHg 22%
    21:00 +21°C° 0 mm 1 m/s 655 mmHg 24%
    22:00 +20°C° 0 mm 1 m/s 655 mmHg 26%
    23:00 +19°C° 0 mm 1 m/s 655 mmHg 28%

    26 Julho, Quinta-feira

    Tempo Temperatura Precipitação Vento Pressão Humidade
    00:00 +18°C° 0 mm 1 m/s 654 mmHg 31%
    01:00 +16°C° 0 mm 1 m/s 654 mmHg 33%
    02:00 +16°C° 0 mm 1 m/s 654 mmHg 36%
    03:00 +15°C° 0 mm 1 m/s 653 mmHg 38%
    04:00 +14°C° 0 mm 1 m/s 653 mmHg 41%
    05:00 +14°C° 0 mm 1 m/s 654 mmHg 42%
    06:00 +13°C° 0 mm 0 m/s 654 mmHg 42%
    07:00 +13°C° 0 mm 0 m/s 654 mmHg 43%
    08:00 +19°C° 0 mm 1 m/s 655 mmHg 35%
    09:00 +23°C° 0 mm 2 m/s 656 mmHg 27%
    10:00 +27°C° 0 mm 2 m/s 657 mmHg 18%
    11:00 +29°C° 0 mm 2 m/s 657 mmHg 16%
    12:00 +31°C° 0 mm 2 m/s 657 mmHg 14%
    13:00 +32°C° 0 mm 2 m/s 656 mmHg 12%
    14:00 +32°C° 0 mm 2 m/s 656 mmHg 12%
    15:00 +32°C° 0 mm 1 m/s 655 mmHg 11%
    16:00 +33°C° 0 mm 1 m/s 655 mmHg 11%
    17:00 +29°C° 0 mm 1 m/s 655 mmHg 15%
    18:00 +26°C° 0 mm 1 m/s 654 mmHg 20%
    19:00 +23°C° 0 mm 1 m/s 654 mmHg 24%
    20:00 +21°C° 0 mm 2 m/s 654 mmHg 33%
    21:00 +19°C° 0 mm 2 m/s 655 mmHg 42%
    22:00 +18°C° 0 mm 2 m/s 655 mmHg 52%
    23:00 +17°C° 0 mm 2 m/s 655 mmHg 58%
    Mostrar mais